Location: Newark
(34.9500°N, 139.9667°E)
Time: 14:59:29
(UTC+00:00)

Vanguard 1 Rocket - Pass Details

Date: 13 December 2019
Orbit: 650 x 4226 km, 34.3° (Epoch: 23 January)

Event Time Altitude Azimuth Distance (km) Brightness Sun altitude
Rises 05:53:00 0° 183° (S) 8,249 13.0 15.2°
Reaches altitude 10° 06:03:35 10° 163° (SSE) 7,421 12.4 13.6°
Maximum altitude 06:15:13 15° 136° (SE) 6,791 11.8 11.8°
Drops below altitude 10° 06:25:39 10° 108° (ESE) 6,707 11.5 10.1°
Sets 06:33:44 0° 89° (E) 7,090 11.4 8.8°
